User: anonymous   Login
Location: Brno
(49.2000°N, 16.6330°E)
Time: 19:36:10
(UTC+02:00)
Language:

Cosmos 1459 Rocket - Orbit

View from above orbital plane
View from above orbital plane
View from above satellite
View from above satellite

Ground track
Ground track

The orbit data is extracted from the following two-line orbital elements,

1 14059U 83042B   17085.60758566 +.00000132 +00000-0 +11385-3 0  9997
2 14059 082.9696 123.2390 0043713 137.3694 223.0871 13.78580311704115
Epoch (UTC): 26 March 2017 14:34:55
Eccentricity: 0.0043713
inclination: 82.9696°
perigee height: 937 km
apogee height: 1001 km
right ascension of ascending node: 123.2390°
argument of perigee: 137.3694°
revolutions per day: 13.78580311
mean anomaly at epoch: 223.0871°
orbit number at epoch: 70411

The dashed part of the orbit path shows where the satellite is in the earth's shadow,  

DLR